Weather History for KHAI - June, 2013

Change the Weather History Date:

Monday, June 17, 2013

  Actual Average Record
Temperature  
Mean Temperature 72 °F -  
Max Temperature 84 °F 79 °F 93 °F (1952)
Min Temperature 59 °F 55 °F 41 °F (1980)
Cooling Degree Days 6    
Growing Degree Days 22 (Base 50)    
Moisture  
Dew Point 60 °F    
Average Humidity 70    
Maximum Humidity 100    
Minimum Humidity 37    
Precipitation  
Precipitation 0.00 in - - ()
Sea Level Pressure  
Sea Level Pressure 29.92 in    
Wind  
Wind Speed 2 mph (West)    
Max Wind Speed 12 mph    
Max Gust Speed 20 mph    
Visibility 9 miles    
Events Rain    
Averages and records for this station are not official NWS values.
T = Trace of Precipitation, MM = Missing Value Source: NWS Daily Summary

Daily Weather History Graph

Daily Weather History Graph

Search for Another Location

Airport or City:

Trip Planner

Search our weather history database for the weather conditions in past years. The results will help you decide how hot, cold, wet, or windy it might be!

Date:

Astronomy

Jun. 17, 2013 Rise Set
Actual Time 6:06 AM EDT 9:20 PM EDT
Civil Twilight 5:32 AM EDT 9:54 PM EDT
Nautical Twilight 4:47 AM EDT 10:39 PM EDT
Astronomical Twilight 3:54 AM EDT 11:32 PM EDT
Moon 2:53 PM EDT (6/17) 1:47 AM EDT (6/17)
Length of Visible Light 16h 22m
Length of Day
15h 13m
First Quarter, 60% of the Moon is Illuminated
Jun 17
First Quarter
Jun 23
Full
Jun 30
Last Quarter
Jul 8
New
Jul 15
First Quarter

Hourly Weather History & Observations

Time (EDT) Temp. Heat Index Dew Point Humidity Pressure Visibility Wind Dir Wind Speed Gust Speed Precip Events Conditions
12:14 AM 62.8 °F - 61.3 °F 95% 29.93 in 10.0 mi Calm Calm - N/A   Clear
12:34 AM 62.6 °F - 61.3 °F 96% 29.94 in 10.0 mi Calm Calm - N/A   Clear
12:54 AM 62.6 °F - 61.2 °F 95% 29.94 in 10.0 mi Calm Calm - N/A   Clear
1:14 AM 62.1 °F - 60.6 °F 95% 29.94 in 10.0 mi Calm Calm - N/A   Clear
1:34 AM 62.8 °F - 61.7 °F 96% 29.94 in 10.0 mi Calm Calm - N/A   Scattered Clouds
1:54 AM 63.5 °F - 61.5 °F 93% 29.92 in 10.0 mi Calm Calm - N/A   Scattered Clouds
2:14 AM 63.0 °F - 60.8 °F 93% 29.92 in 10.0 mi Calm Calm - N/A   Scattered Clouds
2:34 AM 60.8 °F - 59.2 °F 94% 29.92 in 10.0 mi Calm Calm - N/A   Clear
2:54 AM 61.3 °F - 60.1 °F 96% 29.92 in 10.0 mi Calm Calm - N/A   Clear
3:14 AM 61.7 °F - 59.9 °F 94% 29.92 in 10.0 mi Calm Calm - N/A   Clear
3:34 AM 61.5 °F - 60.3 °F 96% 29.92 in 10.0 mi Calm Calm - N/A   Clear
3:54 AM 61.9 °F - 60.8 °F 96% 29.92 in 10.0 mi Calm Calm - N/A   Clear
4:14 AM 60.8 °F - 59.5 °F 96% 29.91 in 10.0 mi South 3.5 mph - N/A   Clear
4:34 AM 61.0 °F - 59.7 °F 96% 29.91 in 10.0 mi SSW 4.6 mph - N/A   Clear
4:54 AM 60.6 °F - 59.7 °F 97% 29.92 in 10.0 mi South 4.6 mph - N/A   Clear
5:14 AM 60.4 °F - 59.5 °F 97% 29.93 in 10.0 mi SSW 3.5 mph - N/A   Clear
5:34 AM 60.4 °F - 59.9 °F 98% 29.93 in 10.0 mi WSW 4.6 mph - N/A   Clear
5:53 AM 61.0 °F - 60.4 °F 98% 29.93 in 7.0 mi Calm Calm - N/A   Clear
6:14 AM 60.6 °F - 60.4 °F 99% 29.93 in 4.0 mi Calm Calm - N/A   Clear
6:34 AM 59.9 °F - 59.4 °F 98% 29.93 in 5.0 mi Calm Calm - N/A   Clear
6:54 AM 61.2 °F - 61.0 °F 99% 29.93 in 1.8 mi Calm Calm - N/A   Mist
7:14 AM 62.4 °F - 62.4 °F 100% 29.93 in 2.5 mi Calm Calm - N/A   Clear
7:33 AM 63.5 °F - 63.5 °F 100% 29.94 in 3.0 mi Calm Calm - N/A   Scattered Clouds
7:54 AM 64.8 °F - 64.4 °F 99% 29.94 in 4.0 mi Calm Calm - N/A   Scattered Clouds
8:14 AM 66.0 °F - 65.3 °F 98% 29.94 in 5.0 mi Calm Calm - N/A   Clear
8:34 AM 67.5 °F - 66.2 °F 96% 29.94 in 5.0 mi Calm Calm - N/A   Clear
8:54 AM 69.4 °F - 67.3 °F 93% 29.95 in 7.0 mi Calm Calm - N/A   Clear
9:14 AM 71.4 °F - 67.1 °F 86% 29.95 in 7.0 mi Calm Calm - N/A   Clear
9:34 AM 72.1 °F - 66.9 °F 84% 29.95 in 10.0 mi Calm Calm - N/A   Clear
9:54 AM 74.5 °F - 67.8 °F 80% 29.95 in 10.0 mi Calm Calm - N/A   Clear
10:14 AM 75.4 °F - 67.8 °F 77% 29.95 in 10.0 mi Calm Calm - N/A   Clear
10:34 AM 78.1 °F - 67.3 °F 69% 29.95 in 10.0 mi Calm Calm - N/A   Clear
10:54 AM 80.4 °F 82.1 °F 64.4 °F 58% 29.95 in 10.0 mi West 4.6 mph - N/A   Clear
11:14 AM 81.5 °F 81.8 °F 59.2 °F 47% 29.95 in 10.0 mi West 5.8 mph - N/A   Clear
11:34 AM 81.9 °F 82.1 °F 59.2 °F 46% 29.95 in 10.0 mi WNW 6.9 mph - N/A   Clear
11:54 AM 82.0 °F 82.1 °F 58.8 °F 45% 29.94 in 10.0 mi West 8.1 mph - N/A   Clear
12:13 PM 82.6 °F 82.2 °F 57.4 °F 42% 29.94 in 10.0 mi WNW 9.2 mph - N/A   Clear
12:34 PM 82.4 °F 82.0 °F 57.0 °F 42% 29.94 in 10.0 mi SW 5.8 mph - N/A   Clear
12:54 PM 83.3 °F 82.8 °F 57.0 °F 41% 29.93 in 10.0 mi West 5.8 mph - N/A   Clear
1:13 PM 83.7 °F 83.3 °F 58.1 °F 42% 29.93 in 10.0 mi WSW 5.8 mph - N/A   Clear
1:34 PM 84.2 °F 83.5 °F 57.4 °F 40% 29.92 in 10.0 mi WNW 6.9 mph - N/A   Clear
1:54 PM 84.6 °F 83.7 °F 57.4 °F 39% 29.92 in 10.0 mi WNW 6.9 mph - N/A   Clear
2:14 PM 84.4 °F 83.7 °F 57.9 °F 40% 29.92 in 10.0 mi WSW 6.9 mph - N/A   Clear
2:34 PM 84.6 °F 84.0 °F 58.5 °F 41% 29.92 in 10.0 mi WNW 11.5 mph - N/A   Clear
2:54 PM 84.2 °F 83.7 °F 57.9 °F 41% 29.92 in 10.0 mi West 8.1 mph - N/A   Clear
3:14 PM 84.2 °F 83.5 °F 57.2 °F 40% 29.92 in 10.0 mi West 10.4 mph - N/A   Clear
3:34 PM 83.8 °F 83.0 °F 56.3 °F 39% 29.92 in 10.0 mi West 11.5 mph 16.1 mph N/A   Clear
3:54 PM 84.2 °F 83.3 °F 56.5 °F 39% 29.91 in 10.0 mi WSW 6.9 mph 18.4 mph N/A   Clear
4:14 PM 84.6 °F 83.9 °F 58.1 °F 40% 29.91 in 10.0 mi West 8.1 mph - N/A   Clear
4:34 PM 84.2 °F 83.3 °F 56.5 °F 39% 29.90 in 10.0 mi West 11.5 mph - N/A   Clear
4:54 PM 83.5 °F 82.4 °F 54.9 °F 37% 29.90 in 10.0 mi WSW 5.8 mph - N/A   Clear
5:14 PM 84.0 °F 83.0 °F 55.8 °F 38% 29.89 in 10.0 mi West 9.2 mph - N/A   Scattered Clouds
5:34 PM 83.8 °F 83.0 °F 56.7 °F 39% 29.89 in 10.0 mi West 6.9 mph - N/A   Clear
5:53 PM 84.0 °F 83.6 °F 58.5 °F 42% 29.88 in 10.0 mi West 8.1 mph - N/A   Clear
6:14 PM 82.6 °F 82.2 °F 57.0 °F 42% 29.89 in 10.0 mi WNW 11.5 mph 16.1 mph N/A   Clear
6:33 PM - - - N/A% 29.88 in 10.0 mi West 9.2 mph - N/A   Clear
6:54 PM 81.3 °F 81.9 °F 60.3 °F 49% 29.88 in 10.0 mi West 4.6 mph - N/A   Clear
7:14 PM 81.1 °F 81.3 °F 57.9 °F 45% 29.88 in 10.0 mi WSW 3.5 mph - N/A   Clear
7:34 PM 81.5 °F 81.8 °F 59.7 °F 47% 29.88 in 10.0 mi Calm Calm - N/A   Clear
7:54 PM 80.2 °F 82.0 °F 64.8 °F 59% 29.88 in 10.0 mi Calm Calm - N/A   Clear
8:14 PM 78.3 °F - 61.3 °F 56% 29.88 in 10.0 mi Calm Calm - N/A   Scattered Clouds
8:34 PM 78.1 °F - 61.3 °F 56% 29.89 in 10.0 mi WSW 3.5 mph - N/A   Clear
8:54 PM 76.6 °F - 62.4 °F 61% 29.88 in 10.0 mi Calm Calm - N/A   Clear
9:13 PM 76.8 °F - 61.7 °F 59% 29.89 in 10.0 mi WSW 5.8 mph - N/A   Scattered Clouds
9:34 PM 73.6 °F - 58.6 °F 59% 29.91 in 10.0 mi West 10.4 mph - N/A   Scattered Clouds
9:54 PM 73.2 °F - 58.5 °F 60% 29.92 in 10.0 mi North 9.2 mph 19.6 mph N/A   Mostly Cloudy
10:14 PM 69.3 °F - 57.9 °F 67% 29.92 in 10.0 mi NNE 3.5 mph - N/A   Scattered Clouds
10:34 PM 67.3 °F - 59.5 °F 76% 29.92 in 10.0 mi NE 3.5 mph - N/A   Clear
10:53 PM 66.7 °F - 60.1 °F 79% 29.91 in 10.0 mi Calm Calm - N/A   Scattered Clouds
11:14 PM 66.2 °F - 60.8 °F 83% 29.91 in 10.0 mi Calm Calm - N/A   Mostly Cloudy
11:34 PM 66.7 °F - 61.9 °F 84% 29.95 in 10.0 mi West 11.5 mph - N/A Rain Heavy Rain
11:54 PM 64.4 °F - 61.9 °F 92% 29.96 in 7.0 mi West 3.5 mph - N/A Rain Rain